FIN50M EFHK-EDDB

Flight info

Callsign FIN50M
Flight time 1h 47m
Altitude 36000
Route VALOX DCT DANKA DCT ROSAX DCT LEMSI DCT PIMEX P739 DEREX DCT GOSOT Z131 BANUB DCT CIPPI DCT USEDU/N0446F370 Z14 BEKBA T280 KETAP KETAP1L
Aircraft A321/M-SDE1E2E3FGIJ1M1RWXYZ/LB1

Departure

Time 2026-05-04 09:14
Airport Helsinki Vantaa Airport (EFHK)

Arrival

Time 2026-05-04 11:01
Airport Berlin Brandenburg Airport (EDDB)
Time Latitude Longitude Altitude Speed Heading
2026-05-04 08:25 60.31787 24.97086 164 ft 0 kts 243°
2026-05-04 09:05 60.31788 24.97090 163 ft 2 kts 242°
2026-05-04 09:05 60.31800 24.97137 163 ft 4 kts 244°
2026-05-04 09:05 60.31809 24.97186 163 ft 4 kts 270°
2026-05-04 09:05 60.31802 24.97218 163 ft 3 kts 333°
2026-05-04 09:06 60.31782 24.97238 163 ft 0 kts 333°
2026-05-04 09:07 60.31782 24.97239 163 ft 0 kts 333°
2026-05-04 09:08 60.31783 24.97237 163 ft 1 kts 333°
2026-05-04 09:08 60.31804 24.97216 163 ft 4 kts 333°
2026-05-04 09:08 60.31827 24.97192 163 ft 3 kts 333°
2026-05-04 09:08 60.31845 24.97173 163 ft 3 kts 333°
2026-05-04 09:09 60.31883 24.97134 163 ft 7 kts 333°
2026-05-04 09:09 60.31925 24.97090 163 ft 7 kts 333°
2026-05-04 09:09 60.31964 24.97050 163 ft 6 kts 333°
2026-05-04 09:09 60.31987 24.97026 163 ft 5 kts 333°
2026-05-04 09:10 60.32036 24.96975 163 ft 10 kts 333°
2026-05-04 09:10 60.32094 24.96911 163 ft 9 kts 330°
2026-05-04 09:10 60.32166 24.96826 164 ft 11 kts 329°
2026-05-04 09:10 60.32209 24.96776 165 ft 10 kts 329°
2026-05-04 09:11 60.32276 24.96697 166 ft 15 kts 330°
2026-05-04 09:11 60.32356 24.96604 171 ft 11 kts 330°
2026-05-04 09:11 60.32404 24.96550 175 ft 5 kts 330°
2026-05-04 09:11 60.32425 24.96521 176 ft 1 kts 308°
2026-05-04 09:12 60.32420 24.96483 177 ft 3 kts 237°
2026-05-04 09:12 60.32411 24.96463 177 ft 3 kts 228°
2026-05-04 09:14 60.27830 24.89198 3150 ft 142 kts 210°
2026-05-04 09:14 60.26939 24.88214 3618 ft 154 kts 210°
2026-05-04 09:14 60.25938 24.87104 3895 ft 175 kts 210°
2026-05-04 09:14 60.24809 24.85853 4138 ft 196 kts 210°
2026-05-04 09:15 60.23523 24.84486 4356 ft 223 kts 202°
2026-05-04 09:15 60.21943 24.83672 4812 ft 243 kts 195°
2026-05-04 09:15 60.20277 24.82920 5645 ft 247 kts 195°
2026-05-04 09:15 60.18588 24.82150 6504 ft 250 kts 196°
2026-05-04 09:17 60.06952 24.67588 12937 ft 259 kts 221°
2026-05-04 09:18 60.05541 24.65321 13656 ft 261 kts 221°
2026-05-04 09:18 60.04110 24.63027 14309 ft 264 kts 221°
2026-05-04 09:18 60.02634 24.60652 14604 ft 282 kts 221°
2026-05-04 09:18 60.01046 24.58088 14722 ft 303 kts 221°
2026-05-04 09:19 59.99386 24.55419 15114 ft 314 kts 221°
2026-05-04 09:19 59.97651 24.52645 15738 ft 317 kts 221°
2026-05-04 09:19 59.95940 24.49916 16346 ft 320 kts 220°
2026-05-04 09:19 59.94192 24.47136 16912 ft 323 kts 220°
2026-05-04 09:20 59.92429 24.44332 17489 ft 326 kts 220°
2026-05-04 09:20 59.90645 24.41495 18064 ft 329 kts 220°
2026-05-04 09:20 59.88848 24.38637 18566 ft 331 kts 220°
2026-05-04 09:20 59.87040 24.35764 19062 ft 334 kts 220°
2026-05-04 09:21 59.85217 24.32879 19551 ft 336 kts 220°
2026-05-04 09:21 59.83379 24.29974 20029 ft 338 kts 220°
2026-05-04 09:21 59.81529 24.27053 20498 ft 341 kts 220°
2026-05-04 09:21 59.79665 24.24114 20945 ft 343 kts 220°
2026-05-04 09:22 59.77810 24.21196 21386 ft 345 kts 220°
2026-05-04 09:22 59.75921 24.18230 21837 ft 347 kts 220°
2026-05-04 09:22 59.74018 24.15246 22270 ft 350 kts 220°
2026-05-04 09:22 59.72093 24.12274 22695 ft 352 kts 219°
2026-05-04 09:23 59.70115 24.09386 23095 ft 355 kts 218°
2026-05-04 09:23 59.68098 24.06544 23444 ft 357 kts 218°
2026-05-04 09:23 59.66055 24.03711 23802 ft 359 kts 218°
2026-05-04 09:23 59.64003 24.00871 24163 ft 360 kts 218°
2026-05-04 09:25 59.49493 23.80562 26740 ft 372 kts 218°
2026-05-04 09:25 59.47453 23.77436 27070 ft 371 kts 225°
2026-05-04 09:26 59.45675 23.73747 27402 ft 372 kts 229°
2026-05-04 09:26 59.43929 23.69975 27759 ft 374 kts 229°
2026-05-04 09:26 59.42169 23.66202 28096 ft 376 kts 229°
2026-05-04 09:26 59.40392 23.62410 28435 ft 377 kts 229°
2026-05-04 09:27 59.38611 23.58622 28763 ft 379 kts 229°
2026-05-04 09:27 59.36823 23.54819 29089 ft 380 kts 229°
2026-05-04 09:27 59.35023 23.50996 29409 ft 382 kts 229°
2026-05-04 09:27 59.33217 23.47164 29723 ft 383 kts 229°
2026-05-04 09:28 59.31404 23.43315 29989 ft 385 kts 229°
2026-05-04 09:28 59.29578 23.39453 30239 ft 386 kts 229°
2026-05-04 09:28 59.27750 23.35596 30486 ft 388 kts 229°
2026-05-04 09:28 59.25911 23.31723 30722 ft 389 kts 229°
2026-05-04 09:29 59.24091 23.27898 30979 ft 388 kts 229°
2026-05-04 09:29 59.22250 23.24033 31285 ft 387 kts 229°
2026-05-04 09:29 59.20416 23.20190 31575 ft 386 kts 229°
2026-05-04 09:29 59.18584 23.16362 31864 ft 386 kts 229°
2026-05-04 09:30 59.16753 23.12534 32167 ft 385 kts 229°
2026-05-04 09:30 59.14928 23.08720 32486 ft 384 kts 229°
2026-05-04 09:30 59.13105 23.04922 32803 ft 383 kts 229°
2026-05-04 09:30 59.11287 23.01145 33130 ft 382 kts 229°
2026-05-04 09:31 59.09465 22.97371 33456 ft 381 kts 229°
2026-05-04 09:31 59.07651 22.93616 33758 ft 380 kts 229°
2026-05-04 09:31 59.05841 22.89871 34067 ft 380 kts 229°
2026-05-04 09:31 59.04028 22.86131 34302 ft 380 kts 229°
2026-05-04 09:32 59.02237 22.82438 34518 ft 381 kts 229°
2026-05-04 09:32 59.00420 22.78689 34693 ft 382 kts 229°
2026-05-04 09:34 58.87497 22.52248 35737 ft 386 kts 229°
2026-05-04 09:34 58.85649 22.48497 35721 ft 384 kts 228°
2026-05-04 09:34 58.81986 22.41085 35725 ft 384 kts 228°
2026-05-04 09:35 58.78299 22.33646 35727 ft 384 kts 228°
2026-05-04 09:35 58.74604 22.26187 35721 ft 385 kts 228°
2026-05-04 09:37 58.59730 21.96481 35726 ft 385 kts 228°
2026-05-04 09:38 58.56001 21.89092 35698 ft 385 kts 228°
2026-05-04 09:38 58.52261 21.81717 35707 ft 386 kts 228°
2026-05-04 09:39 58.48522 21.74358 35708 ft 386 kts 228°
2026-05-04 09:39 58.44800 21.67055 35710 ft 386 kts 227°
2026-05-04 09:40 58.41044 21.59699 35747 ft 386 kts 227°
2026-05-04 09:40 58.37284 21.52372 35742 ft 386 kts 227°
2026-05-04 09:42 58.22208 21.23241 35726 ft 388 kts 227°
2026-05-04 09:43 58.18408 21.15980 35731 ft 388 kts 227°
2026-05-04 09:43 58.14591 21.08759 35732 ft 388 kts 227°
2026-05-04 09:44 58.10759 21.01562 35712 ft 388 kts 226°
2026-05-04 09:46 57.95453 20.72896 35730 ft 388 kts 226°
2026-05-04 09:46 57.91605 20.65747 35735 ft 389 kts 226°
2026-05-04 09:47 57.87751 20.58605 35723 ft 389 kts 226°
2026-05-04 09:49 57.72305 20.30244 35766 ft 389 kts 226°
2026-05-04 09:51 57.59305 20.04537 35757 ft 390 kts 230°
2026-05-04 09:51 57.55733 19.96930 35767 ft 390 kts 230°
2026-05-04 09:52 57.52125 19.89445 35768 ft 390 kts 229°
2026-05-04 09:52 57.48490 19.81949 35771 ft 390 kts 229°
2026-05-04 09:53 57.44849 19.74460 35754 ft 391 kts 229°
2026-05-04 09:53 57.41196 19.66978 35765 ft 391 kts 229°
2026-05-04 09:54 57.37541 19.59498 35772 ft 391 kts 229°
2026-05-04 09:54 57.33878 19.52016 35775 ft 391 kts 229°
2026-05-04 09:55 57.30224 19.44564 35776 ft 391 kts 229°
2026-05-04 09:55 57.26584 19.37154 35813 ft 391 kts 229°
2026-05-04 09:56 57.22907 19.29725 35804 ft 391 kts 229°
2026-05-04 09:56 57.19226 19.22320 35804 ft 391 kts 229°
2026-05-04 09:57 57.15546 19.14927 35801 ft 391 kts 229°
2026-05-04 09:57 57.11888 19.07618 35801 ft 391 kts 229°
2026-05-04 09:58 57.08198 19.00257 35796 ft 391 kts 229°
2026-05-04 09:58 57.04514 18.92909 35792 ft 391 kts 229°
2026-05-04 10:00 56.90331 18.64902 35795 ft 391 kts 228°
2026-05-04 10:04 56.64248 18.14247 35823 ft 392 kts 228°
2026-05-04 10:04 56.60489 18.07051 35813 ft 392 kts 228°
2026-05-04 10:05 56.56735 17.99862 35821 ft 392 kts 228°
2026-05-04 10:05 56.52980 17.92708 35825 ft 391 kts 228°
2026-05-04 10:06 56.49243 17.85614 35831 ft 391 kts 228°
2026-05-04 10:06 56.45489 17.78494 35829 ft 391 kts 228°
2026-05-04 10:08 56.32345 17.53761 35833 ft 390 kts 228°
2026-05-04 10:08 56.28581 17.46714 35839 ft 390 kts 228°
2026-05-04 10:09 56.24813 17.39693 35865 ft 390 kts 228°
2026-05-04 10:09 56.21037 17.32699 35859 ft 389 kts 228°
2026-05-04 10:10 56.17272 17.25722 35854 ft 389 kts 228°
2026-05-04 10:10 56.13505 17.18759 35845 ft 388 kts 228°
2026-05-04 10:11 56.09765 17.11871 35849 ft 388 kts 228°
2026-05-04 10:11 56.05997 17.04951 35858 ft 388 kts 227°
2026-05-04 10:12 56.02225 16.98060 35858 ft 387 kts 227°
2026-05-04 10:12 55.98448 16.91178 35864 ft 387 kts 227°
2026-05-04 10:13 55.94670 16.84299 35836 ft 387 kts 227°
2026-05-04 10:13 55.90893 16.77445 35862 ft 387 kts 227°
2026-05-04 10:14 55.87148 16.70668 35873 ft 386 kts 227°
2026-05-04 10:16 55.72025 16.43523 35860 ft 386 kts 227°
2026-05-04 10:16 55.68252 16.36820 35875 ft 385 kts 227°
2026-05-04 10:17 55.64467 16.30090 35885 ft 385 kts 227°
2026-05-04 10:19 55.49313 16.03341 35884 ft 385 kts 227°
2026-05-04 10:19 55.45507 15.96686 35886 ft 385 kts 227°
2026-05-04 10:20 55.41699 15.90035 35884 ft 385 kts 227°
2026-05-04 10:20 55.37891 15.83393 35898 ft 385 kts 227°
2026-05-04 10:21 55.34105 15.76821 35899 ft 385 kts 226°
2026-05-04 10:21 55.30291 15.70218 35902 ft 385 kts 226°
2026-05-04 10:22 55.24560 15.60321 35913 ft 385 kts 226°
2026-05-04 10:23 55.20742 15.53747 35914 ft 385 kts 226°
2026-05-04 10:25 55.05444 15.27652 35923 ft 384 kts 226°
2026-05-04 10:25 55.01612 15.21146 35929 ft 384 kts 226°
2026-05-04 10:26 54.97801 15.14713 35929 ft 384 kts 226°
2026-05-04 10:26 54.93961 15.08249 35939 ft 384 kts 226°
2026-05-04 10:27 54.90120 15.01789 35936 ft 384 kts 226°
2026-05-04 10:27 54.86281 14.95349 35934 ft 384 kts 226°
2026-05-04 10:28 54.82433 14.88917 35922 ft 384 kts 225°
2026-05-04 10:28 54.78575 14.82498 35926 ft 384 kts 225°
2026-05-04 10:29 54.74721 14.76147 35929 ft 385 kts 225°
2026-05-04 10:29 54.70832 14.69770 35948 ft 385 kts 225°
2026-05-04 10:30 54.66931 14.63400 35950 ft 386 kts 225°
2026-05-04 10:30 54.63026 14.57044 35928 ft 386 kts 225°
2026-05-04 10:31 54.59137 14.50723 35938 ft 386 kts 225°
2026-05-04 10:32 54.45177 14.28993 35955 ft 390 kts 212°
2026-05-04 10:33 54.40294 14.24970 35932 ft 392 kts 208°
2026-05-04 10:33 54.35358 14.20984 35936 ft 392 kts 209°
2026-05-04 10:34 54.30424 14.16988 35942 ft 392 kts 209°
2026-05-04 10:34 54.27945 14.14983 35735 ft 395 kts 209°
2026-05-04 10:34 54.25458 14.12983 35495 ft 395 kts 209°
2026-05-04 10:35 54.22974 14.10992 35247 ft 394 kts 209°
2026-05-04 10:35 54.20408 14.09310 35002 ft 397 kts 201°
2026-05-04 10:35 54.17761 14.07979 34739 ft 396 kts 201°
2026-05-04 10:35 54.15117 14.06650 34432 ft 396 kts 201°
2026-05-04 10:36 54.12448 14.05301 33531 ft 401 kts 202°
2026-05-04 10:36 54.09816 14.03970 32687 ft 401 kts 202°
2026-05-04 10:36 54.07132 14.02617 31977 ft 401 kts 202°
2026-05-04 10:36 54.04443 14.01262 31413 ft 405 kts 202°
2026-05-04 10:37 54.01718 13.99887 30803 ft 411 kts 203°
2026-05-04 10:37 53.98957 13.98494 30172 ft 416 kts 203°
2026-05-04 10:37 53.96164 13.97140 29477 ft 420 kts 200°
2026-05-04 10:37 53.93257 13.96399 28815 ft 424 kts 190°
2026-05-04 10:39 53.76203 13.94287 25252 ft 396 kts 191°
2026-05-04 10:39 53.73474 13.93933 24678 ft 391 kts 191°
2026-05-04 10:39 53.70775 13.93586 24125 ft 387 kts 191°
2026-05-04 10:40 53.68102 13.93247 23551 ft 383 kts 190°
2026-05-04 10:40 53.65478 13.92918 23016 ft 381 kts 190°
2026-05-04 10:40 53.62850 13.92485 22508 ft 376 kts 195°
2026-05-04 10:40 53.60344 13.91426 22061 ft 369 kts 202°
2026-05-04 10:41 53.57897 13.90155 21600 ft 367 kts 202°
2026-05-04 10:41 53.55463 13.88906 21165 ft 365 kts 202°
2026-05-04 10:41 53.53034 13.87670 20732 ft 363 kts 202°
2026-05-04 10:41 53.50621 13.86449 20287 ft 361 kts 201°
2026-05-04 10:42 53.48218 13.85235 19832 ft 359 kts 201°
2026-05-04 10:42 53.45831 13.84027 19392 ft 357 kts 201°
2026-05-04 10:42 53.43493 13.82836 18931 ft 355 kts 201°
2026-05-04 10:42 53.41128 13.81629 18494 ft 354 kts 201°
2026-05-04 10:43 53.38778 13.80434 17990 ft 352 kts 201°
2026-05-04 10:44 53.22652 13.72294 14707 ft 339 kts 201°
2026-05-04 10:45 53.20395 13.71154 14220 ft 338 kts 201°
2026-05-04 10:45 53.18153 13.70026 13767 ft 336 kts 201°
2026-05-04 10:45 53.15951 13.68927 13267 ft 333 kts 200°
2026-05-04 10:45 53.13721 13.67859 12790 ft 333 kts 197°
2026-05-04 10:46 53.11415 13.67373 12303 ft 335 kts 187°
2026-05-04 10:46 53.09096 13.67155 11814 ft 332 kts 187°
2026-05-04 10:46 53.06799 13.66930 11319 ft 330 kts 187°
2026-05-04 10:46 53.04523 13.66703 10953 ft 322 kts 187°
2026-05-04 10:47 53.02345 13.66489 10824 ft 306 kts 187°
2026-05-04 10:47 53.00278 13.66286 10561 ft 296 kts 188°
2026-05-04 10:47 52.98246 13.66084 10295 ft 288 kts 188°
2026-05-04 10:47 52.96270 13.65885 10076 ft 281 kts 188°
2026-05-04 10:49 52.82722 13.65436 9011 ft 276 kts 184°
2026-05-04 10:49 52.80800 13.65678 8876 ft 280 kts 172°
2026-05-04 10:50 52.78972 13.66716 8746 ft 285 kts 158°
2026-05-04 10:51 52.67631 13.75811 7580 ft 247 kts 159°
2026-05-04 10:52 52.66054 13.76823 7263 ft 239 kts 173°
2026-05-04 10:52 52.64422 13.77394 7018 ft 241 kts 172°
2026-05-04 10:52 52.62786 13.77982 6778 ft 241 kts 172°
2026-05-04 10:54 52.51461 13.82026 4939 ft 235 kts 172°
2026-05-04 10:54 52.50407 13.82400 4734 ft 234 kts 172°
2026-05-04 10:56 52.42147 13.79149 3454 ft 188 kts 250°
2026-05-04 10:56 52.41696 13.77150 3391 ft 187 kts 251°
2026-05-04 10:56 52.41245 13.75131 3195 ft 189 kts 250°
2026-05-04 10:57 52.40791 13.73108 2926 ft 189 kts 250°
2026-05-04 10:57 52.40332 13.71110 2664 ft 187 kts 249°
2026-05-04 10:57 52.39874 13.69175 2459 ft 180 kts 248°
2026-05-04 10:57 52.39424 13.67324 2211 ft 171 kts 249°
2026-05-04 10:58 52.38996 13.65534 1941 ft 165 kts 249°
2026-05-04 10:58 52.38589 13.63850 1679 ft 152 kts 249°
2026-05-04 10:58 52.38208 13.62314 1481 ft 142 kts 249°
2026-05-04 10:58 52.37853 13.60854 1269 ft 134 kts 249°
2026-05-04 10:59 52.37518 13.59441 1087 ft 132 kts 249°
2026-05-04 10:59 52.37186 13.58049 931 ft 130 kts 249°
2026-05-04 10:59 52.36857 13.56665 719 ft 130 kts 250°
2026-05-04 10:59 52.36537 13.55281 588 ft 130 kts 251°
2026-05-04 11:00 52.36210 13.53889 402 ft 132 kts 251°
2026-05-04 11:01 52.35449 13.50090 155 ft 14 kts 39°
2026-05-04 11:02 52.35523 13.50187 155 ft 13 kts 38°
2026-05-04 11:02 52.35592 13.50285 155 ft 13 kts 51°
2026-05-04 11:05 52.36038 13.50972 155 ft 0 kts